Location: Buckeye Ditch
(40.9104°N, 122.9517°W)
Time: 12:00:41
(UTC+00:00)

Tiros 1 despin weight - Pass Details

Date: 19 May 2025
Orbit: 563 x 601 km, 48.2° (Epoch: 22 June)

Event Time Altitude Azimuth Distance (km) Brightness Sun altitude
Rises 18:07:32 0° 287° (WNW) 2,847 ? 56.9°
Reaches altitude 10° 18:10:29 10° 267° (W) 1,938 ? 57.3°
Maximum altitude 18:13:22 17° 227° (SW) 1,527 ? 57.8°
Drops below altitude 10° 18:16:13 10° 186° (S) 1,924 ? 58.3°
Sets 18:19:09 0° 166° (SSE) 2,815 ? 58.7°
